| time (UTC) | temp F | wind direction | speed MPH | gust MPH | rain 1hr in | rain 24hr in | rain mn in | humidity % | barometer mb |
| 20260906114959 | 54 | 67 | 0.0 | 0.0 | 0.00 | 0.02 | 0.00 | 94 | 1020.4 |
| 20260906113958 | 53 | 67 | 0.0 | 0.0 | 0.00 | 0.02 | 0.00 | 94 | 1020.4 |
| 20260906113000 | 53 | 67 | 0.0 | 0.0 | 0.00 | 0.02 | 0.00 | 94 | 1020.4 |
| 20260906111959 | 53 | 67 | 0.0 | 0.0 | 0.00 | 0.02 | 0.00 | 94 | 1020.3 |
| 20260906110958 | 52 | 67 | 0.0 | 0.0 | 0.00 | 0.02 | 0.00 | 94 | 1020.2 |
| 20260906110005 | 52 | 67 | 0.0 | 0.0 | 0.00 | 0.02 | 0.00 | 93 | 1020.1 |
| 20260906104958 | 52 | 67 | 0.0 | 0.0 | 0.00 | 0.02 | 0.00 | 93 | 1020.0 |
| 20260906104000 | 53 | 67 | 0.0 | 0.0 | 0.00 | 0.02 | 0.00 | 93 | 1020.2 |
| 20260906103000 | 53 | 67 | 0.0 | 0.0 | 0.00 | 0.02 | 0.00 | 93 | 1020.2 |
| 20260906101959 | 53 | 67 | 0.0 | 0.0 | 0.00 | 0.02 | 0.00 | 93 | 1020.0 |
| 20260906100959 | 53 | 67 | 0.0 | 0.0 | 0.00 | 0.02 | 0.00 | 93 | 1019.8 |
| 20260906094959 | 54 | 67 | 0.0 | 0.0 | 0.00 | 0.02 | 0.00 | 92 | 1019.9 |
| 20260906093003 | 55 | 67 | 0.0 | 0.0 | 0.00 | 0.02 | 0.00 | 92 | 1019.9 |
| 20260906092000 | 56 | 67 | 0.0 | 2.0 | 0.00 | 0.02 | 0.00 | 92 | 1019.8 |
| 20260906091002 | 56 | 67 | 2.0 | 4.0 | 0.00 | 0.02 | 0.00 | 92 | 1019.6 |
| 20260906090004 | 56 | 74 | 2.0 | 4.0 | 0.00 | 0.02 | 0.00 | 92 | 1019.5 |
| 20260906085001 | 56 | 85 | 2.0 | 3.0 | 0.00 | 0.02 | 0.00 | 92 | 1019.5 |
| 20260906084001 | 56 | 53 | 2.0 | 4.0 | 0.00 | 0.02 | 0.00 | 92 | 1019.6 |
| 20260906083001 | 56 | 65 | 2.0 | 4.0 | 0.00 | 0.02 | 0.00 | 92 | 1019.4 |
| 20260906082000 | 56 | 49 | 2.0 | 3.0 | 0.00 | 0.02 | 0.00 | 92 | 1019.4 |
| 20260906081001 | 57 | 73 | 1.0 | 3.0 | 0.00 | 0.02 | 0.00 | 92 | 1019.4 |
| 20260906075958 | 57 | 73 | 1.0 | 4.0 | 0.00 | 0.02 | 0.00 | 92 | 1019.4 |
| 20260906075002 | 57 | 62 | 1.0 | 5.0 | 0.00 | 0.02 | 0.00 | 92 | 1019.3 |
| 20260906074000 | 57 | 58 | 1.0 | 6.0 | 0.00 | 0.02 | 0.00 | 92 | 1019.1 |
| 20260906073000 | 57 | 63 | 1.0 | 3.0 | 0.00 | 0.02 | 0.00 | 92 | 1018.9 |
| 20260906072002 | 57 | 63 | 2.0 | 5.0 | 0.00 | 0.02 | 0.00 | 92 | 1019.0 |
| 20260906071001 | 57 | 53 | 1.0 | 3.0 | 0.00 | 0.02 | 0.00 | 92 | 1019.2 |
| 20260906070006 | 57 | 74 | 0.0 | 2.0 | 0.00 | 0.02 | 0.00 | 92 | 1019.2 |
| 20260906064001 | 58 | 74 | 0.0 | 2.0 | 0.00 | 0.02 | 0.00 | 91 | 1019.2 |
| 20260906062959 | 58 | 74 | 0.0 | 1.0 | 0.00 | 0.02 | 0.00 | 91 | 1019.2 |
| 20260906061958 | 59 | 74 | 0.0 | 3.0 | 0.00 | 0.02 | 0.00 | 91 | 1019.2 |
| 20260906060958 | 59 | 96 | 0.0 | 1.0 | 0.00 | 0.02 | 0.00 | 91 | 1019.2 |
| 20260906060002 | 59 | 96 | 0.0 | 2.0 | 0.00 | 0.02 | 0.00 | 90 | 1019.1 |
| 20260906053000 | 60 | 83 | 2.0 | 6.0 | 0.00 | 0.02 | 0.00 | 89 | 1018.8 |
| 20260906051959 | 61 | 63 | 3.0 | 6.0 | 0.00 | 0.02 | 0.00 | 88 | 1018.8 |
| 20260906050959 | 62 | 83 | 2.0 | 6.0 | 0.00 | 0.02 | 0.00 | 87 | 1018.9 |
| 20260906050003 | 62 | 76 | 3.0 | 8.0 | 0.00 | 0.02 | 0.00 | 87 | 1018.9 |
| 20260906045000 | 62 | 77 | 4.0 | 6.0 | 0.00 | 0.02 | 0.00 | 86 | 1018.7 |
| 20260906044002 | 63 | 88 | 6.0 | 10.0 | 0.00 | 0.02 | 0.00 | 86 | 1018.5 |
| 20260906043002 | 63 | 67 | 4.0 | 7.0 | 0.00 | 0.02 | 0.00 | 87 | 1018.6 |
| 20260906041001 | 64 | 78 | 4.0 | 9.0 | 0.00 | 0.02 | 0.00 | 87 | 1018.2 |
| 20260906040007 | 64 | 65 | 5.0 | 9.0 | 0.00 | 0.02 | 0.00 | 87 | 1018.2 |
| 20260906034003 | 65 | 92 | 6.0 | 10.0 | 0.00 | 0.02 | 0.02 | 89 | 1018.1 |
| 20260906032002 | 65 | 97 | 4.0 | 9.0 | 0.00 | 0.02 | 0.02 | 89 | 1018.2 |
| 20260906031000 | 65 | 69 | 4.0 | 8.0 | 0.00 | 0.02 | 0.02 | 90 | 1018.0 |
| 20260906025958 | 66 | 68 | 3.0 | 7.0 | 0.00 | 0.02 | 0.02 | 90 | 1017.9 |
| 20260906025002 | 66 | 71 | 2.0 | 6.0 | 0.00 | 0.02 | 0.02 | 89 | 1017.9 |
| 20260906022001 | 67 | 92 | 4.0 | 8.0 | 0.00 | 0.02 | 0.02 | 90 | 1017.5 |
| 20260906020958 | 66 | 63 | 4.0 | 6.0 | 0.00 | 0.02 | 0.02 | 91 | 1017.5 |
| 20260906020004 | 66 | 65 | 3.0 | 6.0 | 0.00 | 0.02 | 0.02 | 91 | 1017.6 |
| 20260906013003 | 67 | 64 | 3.0 | 5.0 | 0.00 | 0.02 | 0.02 | 91 | 1017.4 |
| 20260906012000 | 68 | 67 | 2.0 | 4.0 | 0.00 | 0.02 | 0.02 | 91 | 1017.2 |
| 20260906011002 | 68 | 58 | 1.0 | 4.0 | 0.00 | 0.02 | 0.02 | 92 | 1017.1 |
| 20260906010004 | 68 | 61 | 3.0 | 4.0 | 0.00 | 0.02 | 0.02 | 92 | 1016.9 |
| 20260906005004 | 68 | 45 | 1.0 | 3.0 | 0.00 | 0.02 | 0.02 | 92 | 1016.7 |
| 20260906004001 | 68 | 46 | 0.0 | 0.0 | 0.00 | 0.02 | 0.02 | 92 | 1016.6 |
| 20260906003002 | 69 | 46 | 0.0 | 0.0 | 0.00 | 0.02 | 0.02 | 92 | 1016.5 |
| 20260906002003 | 69 | 46 | 0.0 | 0.0 | 0.00 | 0.02 | 0.02 | 91 | 1016.6 |
| 20260906001000 | 69 | 46 | 0.0 | 0.0 | 0.00 | 0.02 | 0.02 | 91 | 1016.6 |
| 20260905235003 | 71 | 46 | 0.0 | 0.0 | 0.00 | 0.02 | 0.02 | 89 | 1016.4 |
| 20260905233004 | 72 | 46 | 0.0 | 0.0 | 0.00 | 0.02 | 0.02 | 90 | 1016.5 |
| 20260905232003 | 72 | 46 | 1.0 | 4.0 | 0.00 | 0.02 | 0.02 | 89 | 1016.6 |
| 20260905230004 | 73 | 43 | 3.0 | 6.0 | 0.00 | 0.02 | 0.02 | 87 | 1016.5 |
| 20260905224001 | 73 | 47 | 4.0 | 10.0 | 0.00 | 0.02 | 0.02 | 87 | 1016.3 |
| 20260905223001 | 73 | 78 | 5.0 | 9.0 | 0.00 | 0.02 | 0.02 | 86 | 1016.3 |
| 20260905222003 | 74 | 58 | 5.0 | 9.0 | 0.00 | 0.02 | 0.02 | 87 | 1016.0 |
| 20260905220006 | 74 | 71 | 4.0 | 6.0 | 0.00 | 0.02 | 0.02 | 90 | 1016.0 |
| 20260905215003 | 74 | 80 | 3.0 | 7.0 | 0.00 | 0.02 | 0.02 | 92 | 1016.0 |
| 20260905214000 | 73 | 76 | 3.0 | 8.0 | 0.00 | 0.02 | 0.02 | 92 | 1016.0 |
| 20260905212003 | 72 | 62 | 3.0 | 6.0 | 0.02 | 0.02 | 0.02 | 93 | 1015.9 |
| 20260905210959 | 72 | 74 | 3.0 | 5.0 | 0.02 | 0.02 | 0.02 | 93 | 1015.8 |
| 20260905210004 | 71 | 64 | 3.0 | 5.0 | 0.02 | 0.02 | 0.02 | 93 | 1015.8 |
| 20260905204959 | 71 | 92 | 3.0 | 6.0 | 0.02 | 0.02 | 0.02 | 93 | 1015.9 |
| 20260905204001 | 71 | 82 | 4.0 | 8.0 | 0.02 | 0.02 | 0.02 | 92 | 1016.0 |
| 20260905202002 | 71 | 46 | 4.0 | 9.0 | 0.00 | 0.00 | 0.00 | 92 | 1016.2 |
| 20260905201002 | 71 | 60 | 4.0 | 11.0 | 0.00 | 0.00 | 0.00 | 92 | 1016.3 |
| 20260905200004 | 71 | 65 | 8.0 | 14.0 | 0.00 | 0.00 | 0.00 | 90 | 1016.2 |
| 20260905195004 | 72 | 60 | 7.0 | 15.0 | 0.00 | 0.00 | 0.00 | 90 | 1016.2 |
| 20260905194000 | 72 | 49 | 6.0 | 13.0 | 0.00 | 0.00 | 0.00 | 91 | 1016.2 |
| 20260905192002 | 71 | 63 | 7.0 | 12.0 | 0.00 | 0.00 | 0.00 | 91 | 1016.4 |
| 20260905191002 | 71 | 59 | 5.0 | 11.0 | 0.00 | 0.00 | 0.00 | 91 | 1016.5 |
| 20260905190006 | 71 | 68 | 8.0 | 13.0 | 0.00 | 0.00 | 0.00 | 91 | 1016.5 |
| 20260905184002 | 70 | 66 | 6.0 | 10.0 | 0.00 | 0.00 | 0.00 | 91 | 1016.5 |
| 20260905182958 | 70 | 52 | 6.0 | 11.0 | 0.00 | 0.00 | 0.00 | 91 | 1016.5 |
| 20260905182003 | 71 | 51 | 7.0 | 12.0 | 0.00 | 0.00 | 0.00 | 91 | 1016.4 |
| 20260905181002 | 71 | 44 | 7.0 | 10.0 | 0.00 | 0.00 | 0.00 | 91 | 1016.4 |
| 20260905180006 | 71 | 73 | 5.0 | 8.0 | 0.00 | 0.00 | 0.00 | 92 | 1016.6 |
| 20260905174959 | 70 | 55 | 6.0 | 9.0 | 0.00 | 0.00 | 0.00 | 92 | 1016.6 |
| 20260905174003 | 71 | 63 | 6.0 | 9.0 | 0.00 | 0.00 | 0.00 | 92 | 1016.5 |
| 20260905173000 | 70 | 53 | 6.0 | 9.0 | 0.00 | 0.00 | 0.00 | 92 | 1016.5 |
| 20260905172002 | 70 | 80 | 4.0 | 9.0 | 0.00 | 0.00 | 0.00 | 92 | 1016.6 |
| 20260905170959 | 70 | 62 | 6.0 | 10.0 | 0.00 | 0.00 | 0.00 | 92 | 1016.7 |
| 20260905170004 | 70 | 42 | 5.0 | 7.0 | 0.00 | 0.00 | 0.00 | 92 | 1016.6 |
| 20260905165000 | 71 | 69 | 4.0 | 9.0 | 0.00 | 0.03 | 0.00 | 92 | 1016.6 |
| 20260905164002 | 71 | 37 | 4.0 | 7.0 | 0.00 | 0.03 | 0.00 | 92 | 1016.6 |
| 20260905161958 | 70 | 81 | 2.0 | 6.0 | 0.00 | 0.03 | 0.00 | 93 | 1016.5 |
| 20260905154959 | 69 | 87 | 4.0 | 9.0 | 0.00 | 0.04 | 0.00 | 93 | 1016.4 |
| 20260905154000 | 68 | 88 | 5.0 | 8.0 | 0.00 | 0.04 | 0.00 | 94 | 1016.4 |
| 20260905153001 | 68 | 73 | 6.0 | 9.0 | 0.00 | 0.04 | 0.00 | 94 | 1016.5 |
| 20260905152001 | 68 | 75 | 4.0 | 7.0 | 0.00 | 0.04 | 0.00 | 94 | 1016.4 |
| 20260905151001 | 68 | 73 | 3.0 | 8.0 | 0.00 | 0.04 | 0.00 | 94 | 1016.3 |
| 20260905150004 | 68 | 50 | 4.0 | 9.0 | 0.00 | 0.04 | 0.00 | 94 | 1016.3 |
| 20260905145001 | 68 | 66 | 6.0 | 9.0 | 0.00 | 0.24 | 0.00 | 94 | 1016.1 |
| 20260905144002 | 68 | 78 | 6.0 | 10.0 | 0.00 | 0.24 | 0.00 | 94 | 1016.0 |
| 20260905141959 | 68 | 60 | 4.0 | 9.0 | 0.00 | 0.24 | 0.00 | 94 | 1015.9 |
| 20260905141002 | 68 | 52 | 4.0 | 10.0 | 0.00 | 0.24 | 0.00 | 94 | 1015.8 |
| 20260905134002 | 69 | 78 | 5.0 | 9.0 | 0.00 | 0.60 | 0.00 | 94 | 1015.7 |
| 20260905133003 | 69 | 69 | 5.0 | 9.0 | 0.00 | 0.60 | 0.00 | 94 | 1015.7 |
| 20260905132001 | 69 | 49 | 6.0 | 9.0 | 0.00 | 0.60 | 0.00 | 94 | 1015.6 |
| 20260905131003 | 70 | 49 | 6.0 | 10.0 | 0.00 | 0.60 | 0.00 | 94 | 1015.4 |
| 20260905125003 | 70 | 73 | 3.0 | 9.0 | 0.00 | 0.69 | 0.00 | 94 | 1015.3 |
| 20260905123959 | 70 | 82 | 5.0 | 9.0 | 0.00 | 0.69 | 0.00 | 94 | 1015.2 |
| 20260905123003 | 70 | 94 | 2.0 | 6.0 | 0.00 | 0.69 | 0.00 | 94 | 1015.1 |
| 20260905122003 | 70 | 90 | 4.0 | 6.0 | 0.00 | 0.69 | 0.00 | 94 | 1015.0 |
| 20260905121002 | 70 | 70 | 3.0 | 6.0 | 0.00 | 0.69 | 0.00 | 94 | 1015.1 |
| 20260905115959 | 70 | 81 | 4.0 | 6.0 | 0.00 | 1.54 | 0.00 | 94 | 1015.0 |